Leesburg, VA

9:24 PM EST on December 12, 2019 (GMT -0500)
Leesburg Executive

Weather History for KJYO - May, 2019

Change the Weather History Date:

Saturday, May 4, 2019

  Actual Average (KIAD) Record (KIAD)
Temperature  
Mean Temperature 65 °F -  
Max Temperature 73 °F 68 °F 90 °F (2001)
Min Temperature 57 °F 45 °F 31 °F (1967)
Growing Degree Days 15 (Base 50)    
Moisture  
Dew Point 62 °F    
Average Humidity 91    
Maximum Humidity 100    
Minimum Humidity 73    
Precipitation  
Precipitation 0.00 in - - ()
Sea Level Pressure  
Sea Level Pressure 29.86 in    
Wind  
Wind Speed 2 mph (NE)    
Max Wind Speed 7 mph    
Max Gust Speed -    
Visibility 7 miles    
Events Thunderstorm    
Averages and records for this station are not official NWS values.
T = Trace of Precipitation, MM = Missing Value Source: NWS Daily Summary

Daily Weather History Graph

Daily Weather History Graph

Search for Another Location

Airport or City:

Astronomy

May. 04, 2019 Rise Set
Actual Time 6:08 AM EDT 8:05 PM EDT
Civil Twilight 5:39 AM EDT 8:35 PM EDT
Nautical Twilight 5:04 AM EDT 9:10 PM EDT
Astronomical Twilight 4:26 AM EDT 9:48 PM EDT
Moon 6:18 AM EDT (5/4) 7:53 PM EDT (5/4)
Length of Visible Light 14h 55m
Length of Day
13h 57m
Waning Crescent, 0% of the Moon is Illuminated
May 4
Waning Crescent
May 4
New
May 11
First Quarter
May 18
Full
May 26
Last Quarter

Hourly Weather History & Observations

Time (EDT) Temp. Dew Point Humidity Pressure Visibility Wind Dir Wind Speed Gust Speed Precip Events Conditions
12:15 AM 60.8 °F 60.8 °F 100% 29.94 in 10.0 mi Calm Calm - N/A   Mostly Cloudy
12:35 AM 59.0 °F 59.0 °F 100% 29.93 in 5.0 mi Calm Calm - N/A   Overcast
12:55 AM 59.0 °F 59.0 °F 100% 29.93 in 0.5 mi Calm Calm - N/A   Overcast
1:15 AM 59.0 °F 59.0 °F 100% 29.91 in 0.2 mi Calm Calm - N/A   Overcast
1:35 AM 57.2 °F 57.2 °F 100% 29.91 in 1.0 mi Calm Calm - N/A   Overcast
1:55 AM 59.0 °F 59.0 °F 100% 29.90 in 0.2 mi Calm Calm - N/A   Overcast
2:15 AM 59.0 °F 59.0 °F 100% 29.90 in 0.2 mi Calm Calm - N/A   Overcast
2:35 AM 59.0 °F 59.0 °F 100% 29.89 in 0.8 mi Calm Calm - N/A   Overcast
2:55 AM 59.0 °F 59.0 °F 100% 29.89 in 1.2 mi Calm Calm - N/A   Overcast
3:15 AM 59.0 °F 59.0 °F 100% 29.89 in 0.8 mi Calm Calm - N/A   Overcast
3:35 AM 59.0 °F 59.0 °F 100% 29.89 in 7.0 mi NNW 3.5 mph - N/A   Overcast
3:55 AM 59.0 °F 59.0 °F 100% 29.88 in 7.0 mi North 3.5 mph - N/A   Overcast
4:15 AM 59.0 °F 59.0 °F 100% 29.88 in 7.0 mi Calm Calm - N/A   Overcast
4:35 AM 59.0 °F 59.0 °F 100% 29.88 in 7.0 mi Calm Calm - N/A   Overcast
4:55 AM 59.0 °F 59.0 °F 100% 29.88 in 7.0 mi NNE 4.6 mph - N/A   Overcast
5:15 AM 59.0 °F 59.0 °F 100% 29.87 in 5.0 mi NNE 3.5 mph - N/A   Overcast
5:35 AM 59.0 °F 59.0 °F 100% 29.86 in 5.0 mi Calm Calm - N/A   Overcast
5:55 AM 59.0 °F 59.0 °F 100% 29.87 in 5.0 mi NNE 3.5 mph - N/A   Overcast
6:15 AM 59.0 °F 59.0 °F 100% 29.88 in 4.0 mi Calm Calm - N/A   Overcast
6:35 AM 59.0 °F 59.0 °F 100% 29.88 in 3.0 mi NNE 3.5 mph - N/A   Overcast
6:55 AM 59.0 °F 59.0 °F 100% 29.88 in 2.5 mi Calm Calm - N/A   Overcast
7:15 AM 59.0 °F 59.0 °F 100% 29.89 in 2.0 mi Calm Calm - N/A   Overcast
7:35 AM 59.0 °F 59.0 °F 100% 29.89 in 2.5 mi NNE 3.5 mph - N/A   Overcast
7:55 AM 59.0 °F 59.0 °F 100% 29.90 in 2.5 mi NNE 4.6 mph - N/A   Overcast
8:15 AM 59.0 °F 59.0 °F 100% 29.90 in 3.0 mi NNE 4.6 mph - N/A   Overcast
8:35 AM 59.0 °F 59.0 °F 100% 29.90 in 4.0 mi NNE 4.6 mph - N/A   Overcast
8:55 AM 59.0 °F 59.0 °F 100% 29.90 in 3.0 mi Calm Calm - N/A   Overcast
9:15 AM 59.0 °F 59.0 °F 100% 29.89 in 3.0 mi Calm Calm - N/A   Overcast
9:35 AM 60.8 °F 60.8 °F 100% 29.90 in 4.0 mi Calm Calm - N/A   Overcast
10:15 AM 60.8 °F 60.8 °F 100% 29.90 in 5.0 mi Calm Calm - N/A   Overcast
10:35 AM 60.8 °F 60.8 °F 100% 29.90 in 5.0 mi Calm Calm - N/A   Overcast
10:55 AM 62.6 °F 62.6 °F 100% 29.90 in 7.0 mi Calm Calm - N/A   Overcast
11:15 AM 64.4 °F 62.6 °F 94% 29.90 in 10.0 mi Calm Calm - N/A   Overcast
11:35 AM 64.4 °F 62.6 °F 94% 29.90 in 10.0 mi NNE 5.8 mph - N/A   Overcast
11:55 AM 68.0 °F 62.6 °F 83% 29.89 in 10.0 mi North 4.6 mph - N/A   Overcast
12:15 PM 68.0 °F 62.6 °F 83% 29.89 in 10.0 mi North 5.8 mph - N/A   Overcast
12:35 PM 68.0 °F 62.6 °F 83% 29.88 in 10.0 mi NNE 4.6 mph - N/A   Overcast
12:55 PM 69.8 °F 62.6 °F 78% 29.88 in 10.0 mi NNW 6.9 mph - N/A   Overcast
1:15 PM 69.8 °F 62.6 °F 78% 29.87 in 10.0 mi North 5.8 mph - N/A   Overcast
1:35 PM 69.8 °F 64.4 °F 83% 29.87 in 10.0 mi North 3.5 mph - N/A   Mostly Cloudy
1:55 PM 71.6 °F 62.6 °F 73% 29.86 in 10.0 mi NE 3.5 mph - N/A   Mostly Cloudy
2:15 PM 71.6 °F 64.4 °F 78% 29.85 in 10.0 mi NNE 5.8 mph - N/A   Overcast
2:35 PM 71.6 °F 64.4 °F 78% 29.85 in 10.0 mi ENE 3.5 mph - N/A   Overcast
2:55 PM 71.6 °F 64.4 °F 78% 29.85 in 10.0 mi NE 3.5 mph - N/A   Overcast
3:15 PM 71.6 °F 64.4 °F 78% 29.84 in 10.0 mi ENE 5.8 mph - N/A   Scattered Clouds
3:35 PM 71.6 °F 64.4 °F 78% 29.84 in 10.0 mi ENE 4.6 mph - N/A   Scattered Clouds
3:55 PM 71.6 °F 64.4 °F 78% 29.83 in 10.0 mi ESE 3.5 mph - N/A   Clear
4:15 PM 71.6 °F 64.4 °F 78% 29.81 in 10.0 mi ESE 5.8 mph - N/A   Clear
4:35 PM 71.6 °F 64.4 °F 78% 29.81 in 10.0 mi East 3.5 mph - N/A   Clear
4:55 PM 73.4 °F 64.4 °F 73% 29.81 in 10.0 mi ENE 3.5 mph - N/A   Clear
5:15 PM 73.4 °F 64.4 °F 73% 29.81 in 10.0 mi Calm Calm - N/A   Clear
5:35 PM 73.4 °F 64.4 °F 73% 29.80 in 10.0 mi ESE 3.5 mph - N/A   Clear
5:55 PM 73.4 °F 64.4 °F 73% 29.80 in 10.0 mi Calm Calm - N/A   Clear
6:15 PM 73.4 °F 64.4 °F 73% 29.80 in 10.0 mi Calm Calm - N/A   Clear
6:35 PM 73.4 °F 64.4 °F 73% 29.80 in 10.0 mi Calm Calm - N/A   Mostly Cloudy
6:55 PM 73.4 °F 66.2 °F 78% 29.80 in 10.0 mi Calm Calm - N/A   Mostly Cloudy
7:15 PM 71.6 °F 66.2 °F 83% 29.79 in 10.0 mi ENE 3.5 mph - N/A   Scattered Clouds
7:35 PM 71.6 °F 66.2 °F 83% 29.79 in 10.0 mi Calm Calm - N/A   Scattered Clouds
7:55 PM 71.6 °F 66.2 °F 83% 29.80 in 10.0 mi Calm Calm - N/A   Overcast
8:15 PM 71.6 °F 66.2 °F 83% 29.80 in 10.0 mi ENE 3.5 mph - N/A   Overcast
8:35 PM 71.6 °F 66.2 °F 83% 29.80 in 10.0 mi East 3.5 mph - N/A   Overcast
8:55 PM 69.8 °F 66.2 °F 88% 29.80 in 10.0 mi NE 4.6 mph - N/A   Overcast
9:15 PM 69.8 °F 66.2 °F 88% 29.81 in 10.0 mi Calm Calm - N/A   Mostly Cloudy
9:35 PM 69.8 °F 66.2 °F 88% 29.81 in 10.0 mi NNE 6.9 mph - N/A   Overcast
9:55 PM 68.0 °F 64.4 °F 88% 29.82 in 10.0 mi NE 6.9 mph - N/A   Overcast
10:15 PM 68.0 °F 64.4 °F 88% 29.82 in 10.0 mi NNE 4.6 mph - N/A Thunderstorm Overcast
10:35 PM 64.4 °F 64.4 °F 100% 29.83 in 7.0 mi NNE 4.6 mph - N/A   Overcast
10:55 PM 64.4 °F 64.4 °F 100% 29.83 in 5.0 mi Calm Calm - N/A   Overcast
11:15 PM 64.4 °F 64.4 °F 100% 29.83 in 4.0 mi Calm Calm - N/A   Overcast
11:35 PM 62.6 °F 62.6 °F 100% 29.83 in 5.0 mi NNE 4.6 mph - N/A Thunderstorm Overcast
11:55 PM 62.6 °F 62.6 °F 100% 29.82 in 3.0 mi NE 5.8 mph - N/A   Overcast